Погода в Джелалабаде

Афганистан     34°25′09″N   70°27′42″E
темп.,
°C
ветер,
м/с
пор.,
м/с
влажн.,
%
обл.,
%
осадки,
мм/ч
давл.,
гПа
погр.,
м
25 июля, вс
вс2501:30+33ю11360 0.0 99711
04:30+32всв11380 0.0 99711
07:30+35ююв11320 0.0 999745
10:30+37ю22261 0.0 9982048
13:30+40ююв32218 0.0 9952311
16:30+41вюв42200 0.0 9931909
19:30+38вюв23250 0.0 993102
22:30+36юв11300 0.0 99514
26 июля, пн
пн2601:30+35юз11341 0.0 99512
04:30+33зсз11374 0.0 99611
07:30+35ююв22340 0.0 997734
10:30+38ююв32300 0.0 9962066
13:30+40юв22220 0.0 9932453
16:30+42вюв421885 0.0 9902034
19:30+39вюв34245 0.0 991104
22:30+37в12318 0.0 99223
27 июля, вт
вт2701:30+35ююв453970 0.0 992219
04:30+33юв335217 0.0 993301
07:30+33ююв22525 0.0 994797
10:30+37ю223683 0.0 9931954
13:30+41вюв332170 0.0 9892219
16:30+41вюв642133 0.0 9871866
19:30+37вюв56360 0.0 990942
22:30+35юв55463 0.0 992598
28 июля, ср
ср2801:30+32юв225520 0.1 992456
04:30+31ююв226120 0.6 993516
07:30+30ююв33621 1.9 995712
10:30+34ююв424913 2.1 9951565
13:30+37юв64393 0.0 9922061
16:30+35вюв65459 0.0 9921433
19:30+32вюв445570 0.4 994895
22:30+31вюв335946 0.6 996719
29 июля, чт
чт2901:30+29юв126632 2.8 996467
04:30+28юв117143 4.1 996271
07:30+29ююв226780 0.6 997608
10:30+32ююв325212 0.8 9961398
13:30+36юв53392 0.0 9942045
16:30+35вюв65430 0.0 9931522
19:30+31юв445523 0.0 995806
22:30+31вюв226074 0.1 997653